owner,sensor,date,latitude,longitude,relative_humidity,qcFlag 
DISL,ioos:station:DISL:KATA:1,2011-08-01T00:00:00Z,30.2583,-88.2131,71.8,1111122 
DISL,ioos:station:DISL:KATA:1,2011-08-01T00:30:00Z,30.2583,-88.2131,70.61,1111122 
DISL,ioos:station:DISL:KATA:1,2011-08-01T01:00:00Z,30.2583,-88.2131,73.15,1111122 
DISL,ioos:station:DISL:KATA:1,2011-08-01T01:30:00Z,30.2583,-88.2131,77.05,1111122 
DISL,ioos:station:DISL:KATA:1,2011-08-01T02:00:00Z,30.2583,-88.2131,77.53,1111122 
DISL,ioos:station:DISL:KATA:1,2011-08-01T02:30:00Z,30.2583,-88.2131,80.1,1111122 
DISL,ioos:station:DISL:KATA:1,2011-08-01T03:00:00Z,30.2583,-88.2131,78.99,1111122 
DISL,ioos:station:DISL:KATA:1,2011-08-01T03:30:00Z,30.2583,-88.2131,78.72,1111122 
DISL,ioos:station:DISL:KATA:1,2011-08-01T04:00:00Z,30.2583,-88.2131,81.9,1111122 
DISL,ioos:station:DISL:KATA:1,2011-08-01T04:30:00Z,30.2583,-88.2131,80.3,1111122 
DISL,ioos:station:DISL:KATA:1,2011-08-01T05:00:00Z,30.2583,-88.2131,81.4,1111122 
DISL,ioos:station:DISL:KATA:1,2011-08-01T05:30:00Z,30.2583,-88.2131,79.81,1111122 
DISL,ioos:station:DISL:KATA:1,2011-08-01T06:00:00Z,30.2583,-88.2131,78.29,1111122 
DISL,ioos:station:DISL:KATA:1,2011-08-01T06:30:00Z,30.2583,-88.2131,78.63,1111122 
DISL,ioos:station:DISL:KATA:1,2011-08-01T07:00:00Z,30.2583,-88.2131,78.59,1111122 
DISL,ioos:station:DISL:KATA:1,2011-08-01T07:30:00Z,30.2583,-88.2131,81.1,1111122 
DISL,ioos:station:DISL:KATA:1,2011-08-01T08:00:00Z,30.2583,-88.2131,82.9,1111122 
DISL,ioos:station:DISL:KATA:1,2011-08-01T08:30:00Z,30.2583,-88.2131,84.2,1111122 
DISL,ioos:station:DISL:KATA:1,2011-08-01T09:00:00Z,30.2583,-88.2131,85.1,1111122 
DISL,ioos:station:DISL:KATA:1,2011-08-01T09:30:00Z,30.2583,-88.2131,85.7,1111122 
DISL,ioos:station:DISL:KATA:1,2011-08-01T10:00:00Z,30.2583,-88.2131,86.2,1111122 
DISL,ioos:station:DISL:KATA:1,2011-08-01T10:30:00Z,30.2583,-88.2131,86.3,1111122 
DISL,ioos:station:DISL:KATA:1,2011-08-01T11:00:00Z,30.2583,-88.2131,85.6,1111122 
DISL,ioos:station:DISL:KATA:1,2011-08-01T11:30:00Z,30.2583,-88.2131,87.0,1111122 
DISL,ioos:station:DISL:KATA:1,2011-08-01T12:00:00Z,30.2583,-88.2131,87.8,1111122 
DISL,ioos:station:DISL:KATA:1,2011-08-01T12:30:00Z,30.2583,-88.2131,87.9,1111122 
DISL,ioos:station:DISL:KATA:1,2011-08-01T13:00:00Z,30.2583,-88.2131,87.7,1111122 
DISL,ioos:station:DISL:KATA:1,2011-08-01T13:30:00Z,30.2583,-88.2131,85.9,1111122 
DISL,ioos:station:DISL:KATA:1,2011-08-01T14:00:00Z,30.2583,-88.2131,85.2,1111122 
DISL,ioos:station:DISL:KATA:1,2011-08-01T14:30:00Z,30.2583,-88.2131,83.5,1111122 
DISL,ioos:station:DISL:KATA:1,2011-08-01T15:00:00Z,30.2583,-88.2131,80.9,1111122 
DISL,ioos:station:DISL:KATA:1,2011-08-01T15:30:00Z,30.2583,-88.2131,76.2,1111122 
DISL,ioos:station:DISL:KATA:1,2011-08-01T16:00:00Z,30.2583,-88.2131,72.5,1111122 
DISL,ioos:station:DISL:KATA:1,2011-08-01T16:30:00Z,30.2583,-88.2131,74.59,1111122 
DISL,ioos:station:DISL:KATA:1,2011-08-01T17:00:00Z,30.2583,-88.2131,69.66,1111122 
DISL,ioos:station:DISL:KATA:1,2011-08-01T17:30:00Z,30.2583,-88.2131,70.91,1111122 
DISL,ioos:station:DISL:KATA:1,2011-08-01T18:00:00Z,30.2583,-88.2131,78.13,1111122 
DISL,ioos:station:DISL:KATA:1,2011-08-01T18:30:00Z,30.2583,-88.2131,77.53,1111122 
DISL,ioos:station:DISL:KATA:1,2011-08-01T19:00:00Z,30.2583,-88.2131,77.98,1111122 
DISL,ioos:station:DISL:KATA:1,2011-08-01T19:30:00Z,30.2583,-88.2131,76.53,1111122 
DISL,ioos:station:DISL:KATA:1,2011-08-01T20:00:00Z,30.2583,-88.2131,80.5,1111122 
DISL,ioos:station:DISL:KATA:1,2011-08-01T20:30:00Z,30.2583,-88.2131,81.3,1111122 
DISL,ioos:station:DISL:KATA:1,2011-08-01T21:00:00Z,30.2583,-88.2131,78.08,1111122 
DISL,ioos:station:DISL:KATA:1,2011-08-01T21:30:00Z,30.2583,-88.2131,76.71,1111122 
DISL,ioos:station:DISL:KATA:1,2011-08-01T22:00:00Z,30.2583,-88.2131,74.47,1111122 
DISL,ioos:station:DISL:KATA:1,2011-08-01T22:30:00Z,30.2583,-88.2131,75.19,1111122 
DISL,ioos:station:DISL:KATA:1,2011-08-01T23:00:00Z,30.2583,-88.2131,72.85,1111122 
DISL,ioos:station:DISL:KATA:1,2011-08-01T23:30:00Z,30.2583,-88.2131,71.69,1111122 
DISL,ioos:station:DISL:KATA:1,2011-08-02T00:00:00Z,30.2583,-88.2131,72.17,1111122 
DISL,ioos:station:DISL:KATA:1,2011-08-02T00:30:00Z,30.2583,-88.2131,73.15,1111122 
DISL,ioos:station:DISL:KATA:1,2011-08-02T01:00:00Z,30.2583,-88.2131,77.42,1111122 
DISL,ioos:station:DISL:KATA:1,2011-08-02T01:30:00Z,30.2583,-88.2131,75.49,1111122 
DISL,ioos:station:DISL:KATA:1,2011-08-02T02:00:00Z,30.2583,-88.2131,79.66,1111122 
DISL,ioos:station:DISL:KATA:1,2011-08-02T02:30:00Z,30.2583,-88.2131,76.1,1111122 
DISL,ioos:station:DISL:KATA:1,2011-08-02T03:00:00Z,30.2583,-88.2131,76.61,1111122 
DISL,ioos:station:DISL:KATA:1,2011-08-02T03:30:00Z,30.2583,-88.2131,76.64,1111122 
DISL,ioos:station:DISL:KATA:1,2011-08-02T04:00:00Z,30.2583,-88.2131,76.27,1111122 
DISL,ioos:station:DISL:KATA:1,2011-08-02T04:30:00Z,30.2583,-88.2131,77.05,1111122 
DISL,ioos:station:DISL:KATA:1,2011-08-02T05:00:00Z,30.2583,-88.2131,78.1,1111122 
DISL,ioos:station:DISL:KATA:1,2011-08-02T05:30:00Z,30.2583,-88.2131,78.92,1111122 
DISL,ioos:station:DISL:KATA:1,2011-08-02T06:00:00Z,30.2583,-88.2131,79.39,1111122 
DISL,ioos:station:DISL:KATA:1,2011-08-02T06:30:00Z,30.2583,-88.2131,78.1,1111122 
DISL,ioos:station:DISL:KATA:1,2011-08-02T07:00:00Z,30.2583,-88.2131,78.78,1111122 
DISL,ioos:station:DISL:KATA:1,2011-08-02T07:30:00Z,30.2583,-88.2131,80.9,1111122 
DISL,ioos:station:DISL:KATA:1,2011-08-02T08:00:00Z,30.2583,-88.2131,81.4,1111122 
DISL,ioos:station:DISL:KATA:1,2011-08-02T08:30:00Z,30.2583,-88.2131,81.7,1111122 
DISL,ioos:station:DISL:KATA:1,2011-08-02T09:00:00Z,30.2583,-88.2131,84.0,1111122 
DISL,ioos:station:DISL:KATA:1,2011-08-02T09:30:00Z,30.2583,-88.2131,85.3,1111122 
DISL,ioos:station:DISL:KATA:1,2011-08-02T10:00:00Z,30.2583,-88.2131,86.4,1111122 
DISL,ioos:station:DISL:KATA:1,2011-08-02T10:30:00Z,30.2583,-88.2131,82.3,1111122 
DISL,ioos:station:DISL:KATA:1,2011-08-02T11:00:00Z,30.2583,-88.2131,85.4,1111122 
DISL,ioos:station:DISL:KATA:1,2011-08-02T11:30:00Z,30.2583,-88.2131,83.7,1111122 
DISL,ioos:station:DISL:KATA:1,2011-08-02T12:00:00Z,30.2583,-88.2131,82.2,1111122 
DISL,ioos:station:DISL:KATA:1,2011-08-02T12:30:00Z,30.2583,-88.2131,81.8,1111122 
DISL,ioos:station:DISL:KATA:1,2011-08-02T13:00:00Z,30.2583,-88.2131,79.95,1111122 
DISL,ioos:station:DISL:KATA:1,2011-08-02T13:30:00Z,30.2583,-88.2131,78.92,1111122 
DISL,ioos:station:DISL:KATA:1,2011-08-02T14:00:00Z,30.2583,-88.2131,77.36,1111122 
DISL,ioos:station:DISL:KATA:1,2011-08-02T14:30:00Z,30.2583,-88.2131,71.93,1111122 
DISL,ioos:station:DISL:KATA:1,2011-08-02T15:00:00Z,30.2583,-88.2131,67.76,1111122 
DISL,ioos:station:DISL:KATA:1,2011-08-02T15:30:00Z,30.2583,-88.2131,68.39,1111122 
DISL,ioos:station:DISL:KATA:1,2011-08-02T16:00:00Z,30.2583,-88.2131,66.15,1111122 
DISL,ioos:station:DISL:KATA:1,2011-08-02T16:30:00Z,30.2583,-88.2131,65.23,1111122 
DISL,ioos:station:DISL:KATA:1,2011-08-02T17:00:00Z,30.2583,-88.2131,68.0,1111122 
DISL,ioos:station:DISL:KATA:1,2011-08-02T17:30:00Z,30.2583,-88.2131,67.63,1111122 
DISL,ioos:station:DISL:KATA:1,2011-08-02T18:00:00Z,30.2583,-88.2131,68.07,1111122 
DISL,ioos:station:DISL:KATA:1,2011-08-02T18:30:00Z,30.2583,-88.2131,69.25,1111122 
DISL,ioos:station:DISL:KATA:1,2011-08-02T19:00:00Z,30.2583,-88.2131,70.28,1111122 
DISL,ioos:station:DISL:KATA:1,2011-08-02T19:30:00Z,30.2583,-88.2131,70.15,1111122 
DISL,ioos:station:DISL:KATA:1,2011-08-02T20:00:00Z,30.2583,-88.2131,68.8,1111122 
DISL,ioos:station:DISL:KATA:1,2011-08-02T20:30:00Z,30.2583,-88.2131,70.26,1111122 
DISL,ioos:station:DISL:KATA:1,2011-08-02T21:00:00Z,30.2583,-88.2131,70.56,1111122 
DISL,ioos:station:DISL:KATA:1,2011-08-02T21:30:00Z,30.2583,-88.2131,70.8,1111122 
DISL,ioos:station:DISL:KATA:1,2011-08-02T22:00:00Z,30.2583,-88.2131,74.05,1111122 
DISL,ioos:station:DISL:KATA:1,2011-08-02T22:30:00Z,30.2583,-88.2131,70.93,1111122 
DISL,ioos:station:DISL:KATA:1,2011-08-02T23:00:00Z,30.2583,-88.2131,71.41,1111122 
DISL,ioos:station:DISL:KATA:1,2011-08-02T23:30:00Z,30.2583,-88.2131,74.76,1111122 
DISL,ioos:station:DISL:KATA:1,2011-08-03T00:00:00Z,30.2583,-88.2131,70.56,1111122 
DISL,ioos:station:DISL:KATA:1,2011-08-03T00:30:00Z,30.2583,-88.2131,73.34,1111122 
DISL,ioos:station:DISL:KATA:1,2011-08-03T01:00:00Z,30.2583,-88.2131,73.22,1111122 
DISL,ioos:station:DISL:KATA:1,2011-08-03T01:30:00Z,30.2583,-88.2131,73.39,1111122 
DISL,ioos:station:DISL:KATA:1,2011-08-03T02:00:00Z,30.2583,-88.2131,71.9,1111122 
DISL,ioos:station:DISL:KATA:1,2011-08-03T02:30:00Z,30.2583,-88.2131,77.42,1111122 
DISL,ioos:station:DISL:KATA:1,2011-08-03T03:00:00Z,30.2583,-88.2131,75.19,1111122 
DISL,ioos:station:DISL:KATA:1,2011-08-03T03:30:00Z,30.2583,-88.2131,75.66,1111122 
DISL,ioos:station:DISL:KATA:1,2011-08-03T04:00:00Z,30.2583,-88.2131,75.46,1111122 
DISL,ioos:station:DISL:KATA:1,2011-08-03T04:30:00Z,30.2583,-88.2131,77.39,1111122 
DISL,ioos:station:DISL:KATA:1,2011-08-03T05:00:00Z,30.2583,-88.2131,79.29,1111122 
DISL,ioos:station:DISL:KATA:1,2011-08-03T05:30:00Z,30.2583,-88.2131,78.47,1111122 
DISL,ioos:station:DISL:KATA:1,2011-08-03T06:00:00Z,30.2583,-88.2131,79.32,1111122 
DISL,ioos:station:DISL:KATA:1,2011-08-03T06:30:00Z,30.2583,-88.2131,80.8,1111122 
DISL,ioos:station:DISL:KATA:1,2011-08-03T07:00:00Z,30.2583,-88.2131,84.9,1111122 
DISL,ioos:station:DISL:KATA:1,2011-08-03T07:30:00Z,30.2583,-88.2131,83.8,1111122 
DISL,ioos:station:DISL:KATA:1,2011-08-03T08:00:00Z,30.2583,-88.2131,84.6,1111122 
DISL,ioos:station:DISL:KATA:1,2011-08-03T08:30:00Z,30.2583,-88.2131,82.2,1111122 
DISL,ioos:station:DISL:KATA:1,2011-08-03T09:00:00Z,30.2583,-88.2131,82.5,1111122 
DISL,ioos:station:DISL:KATA:1,2011-08-03T09:30:00Z,30.2583,-88.2131,82.5,1111122 
DISL,ioos:station:DISL:KATA:1,2011-08-03T10:00:00Z,30.2583,-88.2131,82.0,1111122 
DISL,ioos:station:DISL:KATA:1,2011-08-03T10:30:00Z,30.2583,-88.2131,80.7,1111122 
DISL,ioos:station:DISL:KATA:1,2011-08-03T11:00:00Z,30.2583,-88.2131,82.4,1111122 
DISL,ioos:station:DISL:KATA:1,2011-08-03T11:30:00Z,30.2583,-88.2131,82.7,1111122 
DISL,ioos:station:DISL:KATA:1,2011-08-03T12:00:00Z,30.2583,-88.2131,82.2,1111122 
DISL,ioos:station:DISL:KATA:1,2011-08-03T12:30:00Z,30.2583,-88.2131,80.9,1111122 
DISL,ioos:station:DISL:KATA:1,2011-08-03T13:00:00Z,30.2583,-88.2131,80.7,1111122 
DISL,ioos:station:DISL:KATA:1,2011-08-03T13:30:00Z,30.2583,-88.2131,78.2,1111122 
DISL,ioos:station:DISL:KATA:1,2011-08-03T14:00:00Z,30.2583,-88.2131,78.0,1111122 
DISL,ioos:station:DISL:KATA:1,2011-08-03T14:30:00Z,30.2583,-88.2131,76.6,1111122 
DISL,ioos:station:DISL:KATA:1,2011-08-03T15:00:00Z,30.2583,-88.2131,76.39,1111122 
DISL,ioos:station:DISL:KATA:1,2011-08-03T15:30:00Z,30.2583,-88.2131,73.75,1111122 
DISL,ioos:station:DISL:KATA:1,2011-08-03T16:00:00Z,30.2583,-88.2131,71.44,1111122 
DISL,ioos:station:DISL:KATA:1,2011-08-03T16:30:00Z,30.2583,-88.2131,70.84,1111122 
DISL,ioos:station:DISL:KATA:1,2011-08-03T17:00:00Z,30.2583,-88.2131,73.75,1111122 
DISL,ioos:station:DISL:KATA:1,2011-08-03T17:30:00Z,30.2583,-88.2131,75.24,1111122 
DISL,ioos:station:DISL:KATA:1,2011-08-03T18:00:00Z,30.2583,-88.2131,74.59,1111122 
DISL,ioos:station:DISL:KATA:1,2011-08-03T18:30:00Z,30.2583,-88.2131,74.74,1111122 
DISL,ioos:station:DISL:KATA:1,2011-08-03T19:00:00Z,30.2583,-88.2131,75.5,1111122 
DISL,ioos:station:DISL:KATA:1,2011-08-03T19:30:00Z,30.2583,-88.2131,75.57,1111122 
DISL,ioos:station:DISL:KATA:1,2011-08-03T20:00:00Z,30.2583,-88.2131,74.62,1111122 
DISL,ioos:station:DISL:KATA:1,2011-08-03T20:30:00Z,30.2583,-88.2131,76.25,1111122 
DISL,ioos:station:DISL:KATA:1,2011-08-03T21:00:00Z,30.2583,-88.2131,75.91,1111122 
DISL,ioos:station:DISL:KATA:1,2011-08-03T21:30:00Z,30.2583,-88.2131,76.35,1111122 
DISL,ioos:station:DISL:KATA:1,2011-08-03T22:00:00Z,30.2583,-88.2131,76.04,1111122 
DISL,ioos:station:DISL:KATA:1,2011-08-03T22:30:00Z,30.2583,-88.2131,74.79,1111122 
DISL,ioos:station:DISL:KATA:1,2011-08-03T23:00:00Z,30.2583,-88.2131,74.15,1111122 
DISL,ioos:station:DISL:KATA:1,2011-08-03T23:30:00Z,30.2583,-88.2131,73.24,1111122 
DISL,ioos:station:DISL:KATA:1,2011-08-04T00:00:00Z,30.2583,-88.2131,72.22,1111122 
DISL,ioos:station:DISL:KATA:1,2011-08-04T00:30:00Z,30.2583,-88.2131,73.85,1111122 
DISL,ioos:station:DISL:KATA:1,2011-08-04T01:00:00Z,30.2583,-88.2131,73.41,1111122 
DISL,ioos:station:DISL:KATA:1,2011-08-04T01:30:00Z,30.2583,-88.2131,75.55,1111122 
DISL,ioos:station:DISL:KATA:1,2011-08-04T02:00:00Z,30.2583,-88.2131,77.79,1111122 
DISL,ioos:station:DISL:KATA:1,2011-08-04T02:30:00Z,30.2583,-88.2131,80.5,1111122 
DISL,ioos:station:DISL:KATA:1,2011-08-04T03:00:00Z,30.2583,-88.2131,78.07,1111122 
DISL,ioos:station:DISL:KATA:1,2011-08-04T03:30:00Z,30.2583,-88.2131,75.76,1111122 
DISL,ioos:station:DISL:KATA:1,2011-08-04T04:00:00Z,30.2583,-88.2131,75.96,1111122 
DISL,ioos:station:DISL:KATA:1,2011-08-04T04:30:00Z,30.2583,-88.2131,78.68,1111122 
DISL,ioos:station:DISL:KATA:1,2011-08-04T05:00:00Z,30.2583,-88.2131,79.56,1111122 
DISL,ioos:station:DISL:KATA:1,2011-08-04T05:30:00Z,30.2583,-88.2131,80.5,1111122 
DISL,ioos:station:DISL:KATA:1,2011-08-04T06:00:00Z,30.2583,-88.2131,80.7,1111122 
DISL,ioos:station:DISL:KATA:1,2011-08-04T06:30:00Z,30.2583,-88.2131,82.1,1111122 
DISL,ioos:station:DISL:KATA:1,2011-08-04T07:00:00Z,30.2583,-88.2131,83.8,1111122 
DISL,ioos:station:DISL:KATA:1,2011-08-04T07:30:00Z,30.2583,-88.2131,81.6,1111122 
DISL,ioos:station:DISL:KATA:1,2011-08-04T08:00:00Z,30.2583,-88.2131,80.7,1111122 
DISL,ioos:station:DISL:KATA:1,2011-08-04T08:30:00Z,30.2583,-88.2131,81.1,1111122 
DISL,ioos:station:DISL:KATA:1,2011-08-04T09:00:00Z,30.2583,-88.2131,80.8,1111122 
DISL,ioos:station:DISL:KATA:1,2011-08-04T09:30:00Z,30.2583,-88.2131,81.9,1111122 
DISL,ioos:station:DISL:KATA:1,2011-08-04T10:00:00Z,30.2583,-88.2131,81.5,1111122 
DISL,ioos:station:DISL:KATA:1,2011-08-04T10:30:00Z,30.2583,-88.2131,84.2,1111122 
DISL,ioos:station:DISL:KATA:1,2011-08-04T11:00:00Z,30.2583,-88.2131,84.3,1111122 
DISL,ioos:station:DISL:KATA:1,2011-08-04T11:30:00Z,30.2583,-88.2131,82.9,1111122 
DISL,ioos:station:DISL:KATA:1,2011-08-04T12:00:00Z,30.2583,-88.2131,83.7,1111122 
DISL,ioos:station:DISL:KATA:1,2011-08-04T12:30:00Z,30.2583,-88.2131,81.4,1111122 
DISL,ioos:station:DISL:KATA:1,2011-08-04T13:00:00Z,30.2583,-88.2131,80.7,1111122 
DISL,ioos:station:DISL:KATA:1,2011-08-04T13:30:00Z,30.2583,-88.2131,78.95,1111122 
DISL,ioos:station:DISL:KATA:1,2011-08-04T14:00:00Z,30.2583,-88.2131,74.81,1111122 
DISL,ioos:station:DISL:KATA:1,2011-08-04T14:30:00Z,30.2583,-88.2131,73.04,1111122 
DISL,ioos:station:DISL:KATA:1,2011-08-04T15:00:00Z,30.2583,-88.2131,71.61,1111122 
DISL,ioos:station:DISL:KATA:1,2011-08-04T15:30:00Z,30.2583,-88.2131,71.0,1111122 
DISL,ioos:station:DISL:KATA:1,2011-08-04T16:00:00Z,30.2583,-88.2131,70.25,1111122 
DISL,ioos:station:DISL:KATA:1,2011-08-04T16:30:00Z,30.2583,-88.2131,74.58,1111122 
DISL,ioos:station:DISL:KATA:1,2011-08-04T17:00:00Z,30.2583,-88.2131,72.78,1111122 
DISL,ioos:station:DISL:KATA:1,2011-08-04T17:30:00Z,30.2583,-88.2131,74.66,1111122 
DISL,ioos:station:DISL:KATA:1,2011-08-04T18:00:00Z,30.2583,-88.2131,75.45,1111122 
DISL,ioos:station:DISL:KATA:1,2011-08-04T18:30:00Z,30.2583,-88.2131,76.4,1111122 
DISL,ioos:station:DISL:KATA:1,2011-08-04T19:00:00Z,30.2583,-88.2131,78.75,1111122 
DISL,ioos:station:DISL:KATA:1,2011-08-04T19:30:00Z,30.2583,-88.2131,77.47,1111122 
DISL,ioos:station:DISL:KATA:1,2011-08-04T20:00:00Z,30.2583,-88.2131,77.06,1111122 
DISL,ioos:station:DISL:KATA:1,2011-08-04T20:30:00Z,30.2583,-88.2131,75.84,1111122 
DISL,ioos:station:DISL:KATA:1,2011-08-04T21:00:00Z,30.2583,-88.2131,74.18,1111122 
DISL,ioos:station:DISL:KATA:1,2011-08-04T21:30:00Z,30.2583,-88.2131,74.35,1111122 
DISL,ioos:station:DISL:KATA:1,2011-08-04T22:00:00Z,30.2583,-88.2131,72.38,1111122 
DISL,ioos:station:DISL:KATA:1,2011-08-04T22:30:00Z,30.2583,-88.2131,70.65,1111122 
DISL,ioos:station:DISL:KATA:1,2011-08-04T23:00:00Z,30.2583,-88.2131,70.79,1111122 
DISL,ioos:station:DISL:KATA:1,2011-08-04T23:30:00Z,30.2583,-88.2131,68.52,1111122 
DISL,ioos:station:DISL:KATA:1,2011-08-05T00:00:00Z,30.2583,-88.2131,69.3,1111122 
DISL,ioos:station:DISL:KATA:1,2011-08-05T00:30:00Z,30.2583,-88.2131,67.85,1111122 
DISL,ioos:station:DISL:KATA:1,2011-08-05T01:00:00Z,30.2583,-88.2131,67.89,1111122 
DISL,ioos:station:DISL:KATA:1,2011-08-05T01:30:00Z,30.2583,-88.2131,67.61,1111122 
DISL,ioos:station:DISL:KATA:1,2011-08-05T02:00:00Z,30.2583,-88.2131,68.33,1111122 
DISL,ioos:station:DISL:KATA:1,2011-08-05T02:30:00Z,30.2583,-88.2131,69.11,1111122 
DISL,ioos:station:DISL:KATA:1,2011-08-05T03:00:00Z,30.2583,-88.2131,69.04,1111122 
DISL,ioos:station:DISL:KATA:1,2011-08-05T03:30:00Z,30.2583,-88.2131,70.5,1111122 
DISL,ioos:station:DISL:KATA:1,2011-08-05T04:00:00Z,30.2583,-88.2131,76.39,1111122 
DISL,ioos:station:DISL:KATA:1,2011-08-05T04:30:00Z,30.2583,-88.2131,77.69,1111122 
DISL,ioos:station:DISL:KATA:1,2011-08-05T05:00:00Z,30.2583,-88.2131,81.1,1111122 
DISL,ioos:station:DISL:KATA:1,2011-08-05T05:30:00Z,30.2583,-88.2131,78.89,1111122 
DISL,ioos:station:DISL:KATA:1,2011-08-05T06:00:00Z,30.2583,-88.2131,70.18,1111122 
DISL,ioos:station:DISL:KATA:1,2011-08-05T06:30:00Z,30.2583,-88.2131,66.32,1111122 
DISL,ioos:station:DISL:KATA:1,2011-08-05T07:00:00Z,30.2583,-88.2131,71.23,1111122 
DISL,ioos:station:DISL:KATA:1,2011-08-05T07:30:00Z,30.2583,-88.2131,77.03,1111122 
DISL,ioos:station:DISL:KATA:1,2011-08-05T08:00:00Z,30.2583,-88.2131,72.05,1111122 
DISL,ioos:station:DISL:KATA:1,2011-08-05T08:30:00Z,30.2583,-88.2131,70.35,1111122 
DISL,ioos:station:DISL:KATA:1,2011-08-05T09:00:00Z,30.2583,-88.2131,70.81,1111122 
DISL,ioos:station:DISL:KATA:1,2011-08-05T09:30:00Z,30.2583,-88.2131,78.37,1111122 
DISL,ioos:station:DISL:KATA:1,2011-08-05T10:00:00Z,30.2583,-88.2131,77.94,1111122 
DISL,ioos:station:DISL:KATA:1,2011-08-05T10:30:00Z,30.2583,-88.2131,81.9,1111122 
DISL,ioos:station:DISL:KATA:1,2011-08-05T11:00:00Z,30.2583,-88.2131,78.63,1111122 
DISL,ioos:station:DISL:KATA:1,2011-08-05T11:30:00Z,30.2583,-88.2131,75.14,1111122 
DISL,ioos:station:DISL:KATA:1,2011-08-05T12:00:00Z,30.2583,-88.2131,76.6,1111122 
DISL,ioos:station:DISL:KATA:1,2011-08-05T12:30:00Z,30.2583,-88.2131,82.2,1111122 
DISL,ioos:station:DISL:KATA:1,2011-08-05T13:00:00Z,30.2583,-88.2131,77.99,1111122 
DISL,ioos:station:DISL:KATA:1,2011-08-05T13:30:00Z,30.2583,-88.2131,78.59,1111122 
DISL,ioos:station:DISL:KATA:1,2011-08-05T14:00:00Z,30.2583,-88.2131,77.05,1111122 
DISL,ioos:station:DISL:KATA:1,2011-08-05T14:30:00Z,30.2583,-88.2131,73.46,1111122 
DISL,ioos:station:DISL:KATA:1,2011-08-05T15:00:00Z,30.2583,-88.2131,69.83,1111122 
DISL,ioos:station:DISL:KATA:1,2011-08-05T15:30:00Z,30.2583,-88.2131,71.49,1111122 
DISL,ioos:station:DISL:KATA:1,2011-08-05T16:00:00Z,30.2583,-88.2131,73.82,1111122 
DISL,ioos:station:DISL:KATA:1,2011-08-05T16:30:00Z,30.2583,-88.2131,71.66,1111122 
DISL,ioos:station:DISL:KATA:1,2011-08-05T17:00:00Z,30.2583,-88.2131,67.8,1111122 
DISL,ioos:station:DISL:KATA:1,2011-08-05T17:30:00Z,30.2583,-88.2131,65.46,1111122 
DISL,ioos:station:DISL:KATA:1,2011-08-05T18:00:00Z,30.2583,-88.2131,63.25,1111122 
DISL,ioos:station:DISL:KATA:1,2011-08-05T18:30:00Z,30.2583,-88.2131,69.28,1111122 
DISL,ioos:station:DISL:KATA:1,2011-08-05T19:00:00Z,30.2583,-88.2131,68.6,1111122 
DISL,ioos:station:DISL:KATA:1,2011-08-05T19:30:00Z,30.2583,-88.2131,67.82,1111122 
DISL,ioos:station:DISL:KATA:1,2011-08-05T20:00:00Z,30.2583,-88.2131,61.31,1111122 
DISL,ioos:station:DISL:KATA:1,2011-08-05T20:30:00Z,30.2583,-88.2131,62.09,1111122 
DISL,ioos:station:DISL:KATA:1,2011-08-05T21:00:00Z,30.2583,-88.2131,70.08,1111122 
DISL,ioos:station:DISL:KATA:1,2011-08-05T21:30:00Z,30.2583,-88.2131,71.12,1111122 
DISL,ioos:station:DISL:KATA:1,2011-08-05T22:00:00Z,30.2583,-88.2131,73.49,1111122 
DISL,ioos:station:DISL:KATA:1,2011-08-05T22:30:00Z,30.2583,-88.2131,74.92,1111122 
DISL,ioos:station:DISL:KATA:1,2011-08-05T23:00:00Z,30.2583,-88.2131,74.55,1111122 
DISL,ioos:station:DISL:KATA:1,2011-08-05T23:30:00Z,30.2583,-88.2131,73.13,1111122 
DISL,ioos:station:DISL:KATA:1,2011-08-06T00:00:00Z,30.2583,-88.2131,74.73,1111122 
DISL,ioos:station:DISL:KATA:1,2011-08-06T00:30:00Z,30.2583,-88.2131,74.8,1111122 
DISL,ioos:station:DISL:KATA:1,2011-08-06T01:00:00Z,30.2583,-88.2131,74.7,1111122 
DISL,ioos:station:DISL:KATA:1,2011-08-06T01:30:00Z,30.2583,-88.2131,76.71,1111122 
DISL,ioos:station:DISL:KATA:1,2011-08-06T02:00:00Z,30.2583,-88.2131,76.41,1111122 
DISL,ioos:station:DISL:KATA:1,2011-08-06T02:30:00Z,30.2583,-88.2131,75.05,1111122 
DISL,ioos:station:DISL:KATA:1,2011-08-06T03:00:00Z,30.2583,-88.2131,77.15,1111122 
DISL,ioos:station:DISL:KATA:1,2011-08-06T03:30:00Z,30.2583,-88.2131,76.03,1111122 
DISL,ioos:station:DISL:KATA:1,2011-08-06T04:00:00Z,30.2583,-88.2131,77.32,1111122 
DISL,ioos:station:DISL:KATA:1,2011-08-06T04:30:00Z,30.2583,-88.2131,75.73,1111122 
DISL,ioos:station:DISL:KATA:1,2011-08-06T05:00:00Z,30.2583,-88.2131,73.12,1111122 
DISL,ioos:station:DISL:KATA:1,2011-08-06T05:30:00Z,30.2583,-88.2131,75.36,1111122 
DISL,ioos:station:DISL:KATA:1,2011-08-06T06:00:00Z,30.2583,-88.2131,75.93,1111122 
DISL,ioos:station:DISL:KATA:1,2011-08-06T06:30:00Z,30.2583,-88.2131,77.93,1111122 
DISL,ioos:station:DISL:KATA:1,2011-08-06T07:00:00Z,30.2583,-88.2131,78.31,1111122 
DISL,ioos:station:DISL:KATA:1,2011-08-06T07:30:00Z,30.2583,-88.2131,72.68,1111122 
DISL,ioos:station:DISL:KATA:1,2011-08-06T08:00:00Z,30.2583,-88.2131,72.85,1111122 
DISL,ioos:station:DISL:KATA:1,2011-08-06T08:30:00Z,30.2583,-88.2131,73.93,1111122 
DISL,ioos:station:DISL:KATA:1,2011-08-06T09:00:00Z,30.2583,-88.2131,75.59,1111122 
DISL,ioos:station:DISL:KATA:1,2011-08-06T09:30:00Z,30.2583,-88.2131,71.9,1111122 
DISL,ioos:station:DISL:KATA:1,2011-08-06T10:00:00Z,30.2583,-88.2131,71.29,1111122 
DISL,ioos:station:DISL:KATA:1,2011-08-06T10:30:00Z,30.2583,-88.2131,71.19,1111122 
DISL,ioos:station:DISL:KATA:1,2011-08-06T11:00:00Z,30.2583,-88.2131,69.63,1111122 
DISL,ioos:station:DISL:KATA:1,2011-08-06T11:30:00Z,30.2583,-88.2131,67.76,1111122 
DISL,ioos:station:DISL:KATA:1,2011-08-06T12:00:00Z,30.2583,-88.2131,66.58,1111122 
DISL,ioos:station:DISL:KATA:1,2011-08-06T12:30:00Z,30.2583,-88.2131,65.59,1111122 
DISL,ioos:station:DISL:KATA:1,2011-08-06T13:00:00Z,30.2583,-88.2131,66.95,1111122 
DISL,ioos:station:DISL:KATA:1,2011-08-06T13:30:00Z,30.2583,-88.2131,66.13,1111122 
DISL,ioos:station:DISL:KATA:1,2011-08-06T14:00:00Z,30.2583,-88.2131,77.0,1111122 
DISL,ioos:station:DISL:KATA:1,2011-08-06T14:30:00Z,30.2583,-88.2131,75.04,1111122 
DISL,ioos:station:DISL:KATA:1,2011-08-06T15:00:00Z,30.2583,-88.2131,65.88,1111122 
DISL,ioos:station:DISL:KATA:1,2011-08-06T15:30:00Z,30.2583,-88.2131,64.83,1111122 
DISL,ioos:station:DISL:KATA:1,2011-08-06T16:00:00Z,30.2583,-88.2131,59.22,1111122 
DISL,ioos:station:DISL:KATA:1,2011-08-06T16:30:00Z,30.2583,-88.2131,59.52,1111122 
DISL,ioos:station:DISL:KATA:1,2011-08-06T17:00:00Z,30.2583,-88.2131,61.55,1111122 
DISL,ioos:station:DISL:KATA:1,2011-08-06T17:30:00Z,30.2583,-88.2131,63.51,1111122 
DISL,ioos:station:DISL:KATA:1,2011-08-06T18:00:00Z,30.2583,-88.2131,58.84,1111122 
DISL,ioos:station:DISL:KATA:1,2011-08-06T18:30:00Z,30.2583,-88.2131,64.06,1111122 
DISL,ioos:station:DISL:KATA:1,2011-08-06T19:00:00Z,30.2583,-88.2131,64.64,1111122 
DISL,ioos:station:DISL:KATA:1,2011-08-06T19:30:00Z,30.2583,-88.2131,62.75,1111122 
DISL,ioos:station:DISL:KATA:1,2011-08-06T20:00:00Z,30.2583,-88.2131,62.41,1111122 
DISL,ioos:station:DISL:KATA:1,2011-08-06T20:30:00Z,30.2583,-88.2131,62.38,1111122 
DISL,ioos:station:DISL:KATA:1,2011-08-06T21:00:00Z,30.2583,-88.2131,63.73,1111122 
DISL,ioos:station:DISL:KATA:1,2011-08-06T21:30:00Z,30.2583,-88.2131,62.21,1111122 
DISL,ioos:station:DISL:KATA:1,2011-08-06T22:00:00Z,30.2583,-88.2131,60.61,1111122 
DISL,ioos:station:DISL:KATA:1,2011-08-06T22:30:00Z,30.2583,-88.2131,60.84,1111122 
DISL,ioos:station:DISL:KATA:1,2011-08-06T23:00:00Z,30.2583,-88.2131,60.74,1111122 
DISL,ioos:station:DISL:KATA:1,2011-08-06T23:30:00Z,30.2583,-88.2131,62.77,1111122 
DISL,ioos:station:DISL:KATA:1,2011-08-07T00:00:00Z,30.2583,-88.2131,63.97,1111122 